Time,TemperatureF,DewpointF,PressureIn,WindDirection,WindDirectionDegrees,WindSpeedMPH,WindSpeedGustMPH,Humidity,HourlyPrecipIn,Conditions,Clouds,dailyrainin,SoftwareType,DateUTC
2013-07-06 00:02:00,69.0,69.0,30.27,NNE,24,0.0,1.0,100,0.15,,,0.52,,2013-07-06 04:02:00,
2013-07-06 00:12:00,69.0,69.0,30.27,NNE,32,0.0,1.0,100,0.18,,,0.55,,2013-07-06 04:12:00,
2013-07-06 00:22:00,69.0,69.0,30.27,NNE,32,0.0,0.0,100,0.20,,,0.57,,2013-07-06 04:22:00,
2013-07-06 00:33:00,69.0,69.0,30.27,NNE,32,0.0,0.0,100,0.20,,,0.57,,2013-07-06 04:33:00,
2013-07-06 00:53:00,69.0,69.0,30.27,SE,139,0.0,1.0,100,0.14,,,0.59,,2013-07-06 04:53:00,
2013-07-06 01:02:00,69.0,69.0,30.27,East,79,0.0,2.0,100,0.11,,,0.59,,2013-07-06 05:02:00,
2013-07-06 01:12:00,69.0,69.0,30.27,ENE,61,0.0,3.0,99,0.08,,,0.59,,2013-07-06 05:12:00,
2013-07-06 01:22:00,68.0,68.0,30.27,ENE,68,0.0,3.0,99,0.05,,,0.59,,2013-07-06 05:22:00,
2013-07-06 01:33:00,68.0,68.0,30.27,NE,48,0.0,1.0,99,0.03,,,0.59,,2013-07-06 05:33:00,
2013-07-06 01:42:00,68.0,68.0,30.27,NE,52,0.0,1.0,99,0.00,,,0.59,,2013-07-06 05:42:00,
2013-07-06 01:53:00,68.0,68.0,30.27,ENE,59,1.0,3.0,99,0.00,,,0.59,,2013-07-06 05:53:00,
2013-07-06 02:02:00,68.0,68.0,30.27,ENE,59,1.0,3.0,99,0.00,,,0.59,,2013-07-06 06:02:00,
2013-07-06 02:12:00,67.0,67.0,30.27,ENE,59,0.0,0.0,99,0.00,,,0.59,,2013-07-06 06:12:00,
2013-07-06 02:22:00,67.0,67.0,30.27,ENE,59,0.0,0.0,99,0.00,,,0.59,,2013-07-06 06:22:00,
2013-07-06 02:34:00,67.0,67.0,30.26,ENE,59,0.0,0.0,99,0.00,,,0.59,,2013-07-06 06:34:00,
2013-07-06 02:43:00,67.0,67.0,30.26,ENE,59,0.0,0.0,99,0.00,,,0.59,,2013-07-06 06:43:00,
2013-07-06 02:53:00,67.0,67.0,30.25,ENE,59,0.0,0.0,99,0.00,,,0.59,,2013-07-06 06:53:00,
2013-07-06 03:02:00,67.0,67.0,30.26,ENE,59,0.0,0.0,99,0.00,,,0.59,,2013-07-06 07:02:00,
2013-07-06 03:12:00,67.0,67.0,30.25,ENE,59,0.0,1.0,99,0.00,,,0.59,,2013-07-06 07:12:00,
2013-07-06 03:22:00,67.0,67.0,30.25,ENE,59,0.0,0.0,100,0.00,,,0.59,,2013-07-06 07:22:00,
2013-07-06 03:33:00,67.0,67.0,30.25,ENE,59,0.0,0.0,100,0.00,,,0.59,,2013-07-06 07:33:00,
2013-07-06 03:44:00,67.0,67.0,30.25,ENE,59,0.0,1.0,100,0.00,,,0.59,,2013-07-06 07:44:00,
2013-07-06 03:52:00,67.0,67.0,30.25,NE,54,0.0,1.0,100,0.00,,,0.59,,2013-07-06 07:52:00,
2013-07-06 04:02:00,67.0,67.0,30.25,ENE,68,0.0,1.0,100,0.00,,,0.58,,2013-07-06 08:02:00,
2013-07-06 04:12:00,67.0,67.0,30.25,ENE,68,0.0,0.0,100,0.00,,,0.57,,2013-07-06 08:12:00,
2013-07-06 04:21:00,67.0,67.0,30.25,East,84,0.0,1.0,100,0.00,,,0.56,,2013-07-06 08:21:00,
2013-07-06 04:34:00,67.0,67.0,30.25,ENE,74,0.0,1.0,100,0.00,,,0.54,,2013-07-06 08:34:00,
2013-07-06 04:43:00,67.0,67.0,30.25,ENE,74,0.0,0.0,100,0.00,,,0.53,,2013-07-06 08:43:00,
2013-07-06 04:54:00,67.0,67.0,30.25,ENE,74,0.0,0.0,100,0.00,,,0.53,,2013-07-06 08:54:00,
2013-07-06 05:02:00,67.0,67.0,30.25,ENE,74,0.0,0.0,100,0.00,,,0.53,,2013-07-06 09:02:00,
2013-07-06 05:11:00,67.0,67.0,30.25,ENE,59,0.0,0.0,100,0.00,,,0.53,,2013-07-06 09:11:00,
2013-07-06 05:22:00,67.0,67.0,30.25,ENE,59,0.0,0.0,100,0.00,,,0.53,,2013-07-06 09:22:00,
2013-07-06 05:33:00,67.0,67.0,30.25,ENE,59,0.0,0.0,100,0.00,,,0.53,,2013-07-06 09:33:00,
2013-07-06 05:43:00,67.0,67.0,30.25,ENE,59,0.0,0.0,100,0.00,,,0.53,,2013-07-06 09:43:00,
2013-07-06 05:52:00,67.0,67.0,30.25,ENE,60,0.0,0.0,100,0.01,,,0.53,,2013-07-06 09:52:00,
2013-07-06 06:02:00,67.0,67.0,30.25,ENE,65,0.0,1.0,100,0.01,,,0.53,,2013-07-06 10:02:00,
2013-07-06 06:11:00,67.0,67.0,30.25,ENE,65,0.0,1.0,100,0.01,,,0.53,,2013-07-06 10:11:00,
2013-07-06 06:22:00,67.0,67.0,30.26,ENE,64,0.0,0.0,100,0.01,,,0.53,,2013-07-06 10:22:00,
2013-07-06 06:33:00,67.0,67.0,30.26,ENE,64,0.0,0.0,100,0.01,,,0.53,,2013-07-06 10:33:00,
2013-07-06 06:42:00,67.0,67.0,30.27,ENE,65,0.0,0.0,100,0.01,,,0.52,,2013-07-06 10:42:00,
2013-07-06 06:53:00,67.0,67.0,30.27,ENE,65,0.0,0.0,100,0.01,,,0.52,,2013-07-06 10:53:00,
2013-07-06 07:01:00,67.0,67.0,30.27,ENE,65,0.0,0.0,100,0.00,,,0.52,,2013-07-06 11:01:00,
2013-07-06 07:11:00,67.0,67.0,30.27,East,94,0.0,1.0,100,0.00,,,0.52,,2013-07-06 11:11:00,
2013-07-06 07:22:00,67.0,67.0,30.27,East,94,0.0,1.0,100,0.00,,,0.52,,2013-07-06 11:22:00,
2013-07-06 07:33:00,68.0,68.0,30.27,ESE,110,0.0,0.0,100,0.00,,,0.52,,2013-07-06 11:33:00,
2013-07-06 07:43:00,68.0,68.0,30.27,ESE,111,0.0,0.0,100,0.00,,,0.52,,2013-07-06 11:43:00,
2013-07-06 07:53:00,68.0,68.0,30.27,ESE,110,0.0,1.0,100,0.00,,,0.52,,2013-07-06 11:53:00,
2013-07-06 08:12:00,68.0,68.0,30.27,ENE,60,0.0,1.0,100,0.00,,,0.52,,2013-07-06 12:12:00,
2013-07-06 08:22:00,68.0,68.0,30.27,ENE,73,0.0,1.0,100,0.00,,,0.52,,2013-07-06 12:22:00,
2013-07-06 08:33:00,68.0,68.0,30.27,ENE,73,0.0,1.0,100,0.00,,,0.52,,2013-07-06 12:33:00,
2013-07-06 08:43:00,68.0,68.0,30.27,NE,46,0.0,1.0,100,0.00,,,0.52,,2013-07-06 12:43:00,
2013-07-06 08:52:00,68.0,68.0,30.27,NE,46,0.0,1.0,100,0.00,,,0.52,,2013-07-06 12:52:00,
2013-07-06 09:01:00,69.0,69.0,30.27,ENE,67,0.0,1.0,100,0.00,,,0.52,,2013-07-06 13:01:00,
2013-07-06 09:12:00,69.0,69.0,30.27,ENE,67,0.0,1.0,100,0.00,,,0.52,,2013-07-06 13:12:00,
2013-07-06 09:22:00,69.0,69.0,30.27,NE,55,1.0,2.0,100,0.00,,,0.52,,2013-07-06 13:22:00,
2013-07-06 09:33:00,69.0,69.0,30.28,NE,55,0.0,1.0,100,0.00,,,0.52,,2013-07-06 13:33:00,
2013-07-06 09:43:00,69.0,69.0,30.27,ENE,59,0.0,1.0,100,0.00,,,0.52,,2013-07-06 13:43:00,
2013-07-06 09:52:00,69.0,69.0,30.27,ESE,115,0.0,1.0,100,0.00,,,0.52,,2013-07-06 13:52:00,
2013-07-06 10:02:00,69.0,69.0,30.27,ESE,115,0.0,0.0,100,0.00,,,0.52,,2013-07-06 14:02:00,
2013-07-06 10:12:00,69.0,69.0,30.27,ESE,115,0.0,0.0,100,0.00,,,0.52,,2013-07-06 14:12:00,
2013-07-06 10:22:00,69.0,69.0,30.27,ESE,115,0.0,0.0,100,0.00,,,0.52,,2013-07-06 14:22:00,
2013-07-06 10:34:00,69.0,69.0,30.27,East,86,0.0,1.0,100,0.00,,,0.52,,2013-07-06 14:34:00,
2013-07-06 10:42:00,69.0,69.0,30.27,East,86,0.0,0.0,100,0.00,,,0.52,,2013-07-06 14:42:00,
2013-07-06 10:53:00,69.0,69.0,30.27,East,86,0.0,1.0,100,0.00,,,0.52,,2013-07-06 14:53:00,
2013-07-06 11:02:00,70.0,70.0,30.27,SE,126,0.0,1.0,100,0.00,,,0.52,,2013-07-06 15:02:00,
2013-07-06 11:12:00,70.0,70.0,30.27,SE,126,0.0,1.0,100,0.00,,,0.52,,2013-07-06 15:12:00,
2013-07-06 11:22:00,70.0,70.0,30.28,SE,126,0.0,0.0,100,0.00,,,0.52,,2013-07-06 15:22:00,
2013-07-06 11:33:00,70.0,70.0,30.28,SE,126,0.0,0.0,100,0.00,,,0.52,,2013-07-06 15:33:00,
2013-07-06 11:43:00,70.0,70.0,30.27,SSE,168,0.0,3.0,100,0.00,,,0.51,,2013-07-06 15:43:00,
2013-07-06 11:53:00,71.0,71.0,30.27,ENE,71,0.0,2.0,100,0.00,,,0.51,,2013-07-06 15:53:00,
2013-07-06 12:07:00,71.0,71.0,30.27,ENE,71,0.0,1.0,100,0.00,,,0.50,,2013-07-06 16:07:00,
2013-07-06 12:15:00,71.0,71.0,30.26,ESE,119,0.0,2.0,100,0.01,,,0.51,,2013-07-06 16:15:00,
2013-07-06 12:26:00,71.0,71.0,30.26,ESE,119,0.0,2.0,100,0.01,,,0.51,,2013-07-06 16:26:00,
2013-07-06 13:01:00,72.0,72.0,30.26,NNE,25,0.0,0.0,100,0.16,,,0.66,,2013-07-06 17:01:00,
2013-07-06 13:15:00,73.0,73.0,30.25,SSE,159,0.0,2.0,100,0.16,,,0.66,,2013-07-06 17:15:00,
2013-07-06 13:23:00,73.0,73.0,30.24,South,189,0.0,1.0,100,0.15,,,0.66,,2013-07-06 17:23:00,
2013-07-06 13:44:00,73.0,73.0,30.24,South,189,0.0,0.0,100,0.00,,,0.66,,2013-07-06 17:44:00,
2013-07-06 13:52:00,73.0,73.0,30.23,South,188,0.0,0.0,100,0.00,,,0.66,,2013-07-06 17:52:00,
2013-07-06 14:11:00,73.0,73.0,30.23,SSE,160,0.0,0.0,100,0.00,,,0.65,,2013-07-06 18:11:00,
2013-07-06 14:44:00,73.0,73.0,30.22,ENE,61,0.0,3.0,100,0.01,,,0.66,,2013-07-06 18:44:00,
2013-07-06 15:01:00,73.0,73.0,30.22,NE,55,0.0,1.0,100,0.03,,,0.68,,2013-07-06 19:01:00,
2013-07-06 15:12:00,73.0,73.0,30.22,South,173,0.0,0.0,99,0.04,,,0.69,,2013-07-06 19:12:00,
2013-07-06 15:24:00,73.0,73.0,30.21,South,173,0.0,0.0,100,0.04,,,0.69,,2013-07-06 19:24:00,
2013-07-06 15:30:00,72.0,72.0,30.20,South,172,0.0,0.0,100,0.04,,,0.69,,2013-07-06 19:30:00,
2013-07-06 15:45:00,72.0,72.0,30.21,ENE,71,0.0,1.0,99,0.01,,,0.69,,2013-07-06 19:45:00,
2013-07-06 15:53:00,72.0,72.0,30.21,ENE,71,0.0,0.0,99,0.01,,,0.69,,2013-07-06 19:53:00,
2013-07-06 16:13:00,72.0,72.0,30.21,ENE,70,0.0,1.0,99,0.26,,,0.95,,2013-07-06 20:13:00,
2013-07-06 16:23:00,71.0,71.0,30.21,ENE,71,0.0,1.0,99,0.54,,,1.23,,2013-07-06 20:23:00,
2013-07-06 16:31:00,71.0,71.0,30.21,NNE,13,0.0,2.0,99,0.69,,,1.38,,2013-07-06 20:31:00,
2013-07-06 16:45:00,71.0,71.0,30.21,NNE,13,0.0,2.0,99,0.69,,,1.38,,2013-07-06 20:45:00,
2013-07-06 16:54:00,71.0,71.0,30.21,NNE,13,0.0,0.0,100,0.74,,,1.43,,2013-07-06 20:54:00,
2013-07-06 17:22:00,72.0,72.0,30.21,NNE,13,0.0,2.0,100,0.20,,,1.43,,2013-07-06 21:22:00,
2013-07-06 17:54:00,73.0,73.0,30.20,NNE,13,0.0,0.0,100,0.00,,,1.43,,2013-07-06 21:54:00,
2013-07-06 18:00:00,73.0,73.0,30.20,NNE,13,0.0,0.0,100,0.00,,,1.43,,2013-07-06 22:00:00,
2013-07-06 18:14:00,73.0,73.0,30.19,NNE,13,0.0,0.0,100,0.00,,,1.43,,2013-07-06 22:14:00,
2013-07-06 18:23:00,73.0,73.0,30.19,NNE,13,0.0,0.0,100,0.00,,,1.43,,2013-07-06 22:23:00,
2013-07-06 18:44:00,74.0,74.0,30.19,NNE,13,0.0,0.0,100,0.00,,,1.43,,2013-07-06 22:44:00,
2013-07-06 18:53:00,74.0,74.0,30.19,NNE,13,0.0,0.0,100,0.00,,,1.43,,2013-07-06 22:53:00,
2013-07-06 19:45:00,74.0,74.0,30.19,NNE,13,0.0,0.0,100,0.00,,,1.21,,2013-07-06 23:45:00,
2013-07-06 19:52:00,74.0,74.0,30.19,NNE,13,0.0,0.0,100,0.00,,,1.21,,2013-07-06 23:52:00,
2013-07-06 20:10:00,74.0,74.0,30.17,NNE,13,0.0,0.0,100,0.00,,,1.18,,2013-07-07 00:10:00,
2013-07-06 20:15:00,74.0,74.0,30.18,NNE,13,0.0,0.0,100,0.00,,,1.21,,2013-07-07 00:15:00,
2013-07-06 20:23:00,74.0,74.0,30.19,NNE,13,0.0,0.0,100,0.00,,,1.18,,2013-07-07 00:23:00,
2013-07-06 20:32:00,74.0,74.0,30.18,NNE,13,0.0,0.0,100,0.00,,,1.18,,2013-07-07 00:32:00,
2013-07-06 20:43:00,74.0,74.0,30.17,NNE,13,0.0,0.0,100,0.00,,,1.18,,2013-07-07 00:43:00,
2013-07-06 20:51:00,73.0,73.0,30.19,West,264,2.0,5.0,100,0.00,,,1.18,,2013-07-07 00:51:00,
2013-07-06 21:22:00,73.0,73.0,30.19,West,264,2.0,5.0,100,0.00,,,1.18,,2013-07-07 01:22:00,
2013-07-06 21:33:00,73.0,73.0,30.19,West,264,2.0,5.0,100,0.00,,,1.18,,2013-07-07 01:33:00,
2013-07-06 21:44:00,73.0,73.0,30.19,West,264,2.0,5.0,100,0.00,,,1.18,,2013-07-07 01:44:00,
2013-07-06 23:02:00,70.0,70.0,30.21,SSW,198,0.0,0.0,99,0.24,,,1.50,,2013-07-07 03:02:00,
2013-07-06 23:13:00,70.0,70.0,30.21,SSW,198,0.0,0.0,99,0.24,,,1.50,,2013-07-07 03:13:00,
2013-07-06 23:22:00,70.0,70.0,30.21,SSW,198,0.0,0.0,99,0.24,,,1.50,,2013-07-07 03:22:00,